QPF
0.05 0.07 0.07 0.06 0.06 0.04 0.03 0.03 0.04 0.05 0.06 0.07 0.08 0.07 0.06 0.07 0.08 0.08 0.08 0.10 0.12 0.11 0.10 0.08 0.07 0.08 0.08 0.09 0.07 0.04 0.03 0.04 0.05 0.07 0.05 0.05 0.04 0.03 0.03 0.03 0.03 0.02 0.03
0.03 0.05 0.06 0.04 0.04 0.03 0.03 0.03 0.03 0.04 0.05 0.05 0.06 0.06 0.06 0.06 0.07 0.06 0.08 0.11 0.09 0.07 0.07 0.07 0.07 0.07 0.05 0.06 0.05 0.03 0.04 0.04 0.04 0.06 0.06 0.04 0.04 0.03 0.02 0.02 0.02 0.03 0.04
0.02 0.03 0.04 0.03 0.02 0.02 0.03 0.03 0.04 0.03 0.03 0.03 0.04 0.05 0.06 0.05 0.05 0.05 0.06 0.06 0.06 0.06 0.05 0.05 0.05 0.04 0.03 0.03 0.03 0.03 0.04 0.03 0.03 0.04 0.05 0.04 0.03 0.04 0.05 0.03 0.03 0.03 0.03
0.01 0.02 0.02 0.02 0.02 0.02 0.02 0.03 0.03 0.03 0.03 0.03 0.03 0.04 0.04 0.04 0.04 0.04 0.04 0.04 0.04 0.05 0.04 0.04 0.05 0.04 0.03 0.02 0.02 0.03 0.03 0.03 0.03 0.03 0.04 0.03 0.03 0.03 0.04 0.02 0.01 0.02 0.02
0.01 0.02 0.03 0.03 0.02 0.02 0.02 0.03 0.03 0.03 0.02 0.02 0.03 0.04 0.03 0.03 0.03 0.03 0.04 0.04 0.04 0.04 0.04 0.05 0.05 0.04 0.03 0.03 0.03 0.03 0.02 0.02 0.02 0.01 0.02 0.03 0.03 0.04 0.03 0.01 0.01 0.01 0.01
0.01 0.02 0.02 0.03 0.03 0.03 0.02 0.02 0.03 0.02 0.02 0.02 0.03 0.03 0.04 0.04 0.04 0.03 0.04 0.04 0.04 0.04 0.04 0.03 0.03 0.03 0.03 0.03 0.03 0.02 0.02 0.02 0.02 0.00 0.01 0.02 0.03 0.04 0.04 0.03 0.02 0.03 0.02
0.01 0.01 0.01 0.02 0.02 0.02 0.02 0.02 0.02 0.02 0.02 0.02 0.02 0.02 0.02 0.03 0.03 0.03 0.03 0.03 0.03 0.03 0.02 0.03 0.03 0.02 0.03 0.02 0.03 0.02 0.02 0.02 0.01 0.01 0.02 0.03 0.03 0.03 0.03 0.03 0.04 0.03 0.01
0.01 0.01 0.01 0.01 0.01 0.01 0.01 0.02 0.02 0.02 0.01 0.02 0.02 0.02 0.02 0.02 0.02 0.03 0.03 0.03 0.03 0.03 0.02 0.03 0.03 0.02 0.02 0.02 0.03 0.05 0.02 0.02 0.02 0.02 0.03 0.03 0.02 0.02 0.02 0.02 0.02 0.03 0.02
0.00 0.00 0.01 0.01 0.01 0.01 0.01 0.01 0.01 0.02 0.01 0.01 0.02 0.01 0.02 0.01 0.02 0.02 0.03 0.03 0.03 0.03 0.02 0.03 0.02 0.01 0.01 0.02 0.03 0.03 0.01 0.02 0.02 0.04 0.02 0.04 0.02 0.02 0.01 0.02 0.02 0.02 0.02
0.00 0.00 0.00 0.01 0.01 0.01 0.01 0.01 0.01 0.03 0.03 0.02 0.01 0.01 0.01 0.01 0.01 0.01 0.02 0.03 0.03 0.03 0.03 0.02 0.02 0.02 0.01 0.02 0.03 0.03 0.02 0.02 0.02 0.02 0.02 0.02 0.02 0.03 0.03 0.02 0.01 0.02 0.02
0.00 0.00 0.01 0.01 0.01 0.01 0.01 0.01 0.02 0.03 0.03 0.04 0.03 0.01 0.02 0.03 0.02 0.01 0.01 0.02 0.03 0.03 0.02 0.03 0.03 0.03 0.02 0.02 0.03 0.04 0.03 0.03 0.02 0.04 0.02 0.01 0.02 0.03 0.04 0.03 0.02 0.01 0.01
0.00 0.00 0.01 0.01 0.01 0.01 0.01 0.02 0.03 0.03 0.04 0.04 0.03 0.03 0.03 0.02 0.02 0.01 0.01 0.01 0.02 0.03 0.03 0.03 0.03 0.02 0.02 0.02 0.02 0.03 0.03 0.03 0.02 0.03 0.02 0.01 0.02 0.04 0.04 0.03 0.03 0.01 0.01
0.00 0.00 0.00 0.00 0.01 0.01 0.02 0.02 0.03 0.03 0.04 0.03 0.02 0.01 0.01 0.01 0.01 0.01 0.02 0.02 0.03 0.03 0.04 0.03 0.04 0.02 0.02 0.02 0.03 0.02 0.02 0.02 0.02 0.02 0.01 0.01 0.03 0.03 0.03 0.02 0.03 0.02 0.01
0.00 0.00 0.00 0.00 0.01 0.01 0.01 0.02 0.02 0.03 0.02 0.02 0.02 0.02 0.01 0.02 0.01 0.02 0.03 0.03 0.04 0.05 0.06 0.05 0.06 0.04 0.03 0.02 0.02 0.03 0.03 0.02 0.02 0.02 0.02 0.01 0.03 0.03 0.04 0.03 0.03 0.04 0.04
0.00 0.01 0.01 0.01 0.01 0.01 0.02 0.02 0.01 0.02 0.02 0.01 0.02 0.02 0.02 0.03 0.03 0.03 0.04 0.04 0.04 0.04 0.04 0.04 0.05 0.04 0.04 0.04 0.01 0.02 0.03 0.03 0.02 0.02 0.03 0.02 0.03 0.03 0.04 0.04 0.04 0.05 0.06
0.01 0.01 0.01 0.02 0.02 0.02 0.03 0.03 0.02 0.02 0.03 0.02 0.02 0.02 0.04 0.05 0.06 0.06 0.06 0.05 0.06 0.06 0.05 0.04 0.04 0.04 0.04 0.04 0.02 0.01 0.01 0.02 0.01 0.02 0.03 0.03 0.03 0.03 0.03 0.04 0.04 0.05 0.05
0.00 0.01 0.00 0.01 0.01 0.02 0.03 0.02 0.03 0.04 0.03 0.04 0.06 0.06 0.05 0.06 0.08 0.10 0.09 0.07 0.07 0.06 0.07 0.06 0.06 0.05 0.04 0.04 0.03 0.03 0.02 0.02 0.01 0.04 0.03 0.04 0.04 0.04 0.04 0.05 0.07 0.07 0.07
0.01 0.01 0.00 0.01 0.02 0.02 0.03 0.04 0.04 0.05 0.05 0.06 0.07 0.06 0.06 0.08 0.09 0.10 0.10 0.09 0.11 0.08 0.07 0.09 0.09 0.07 0.06 0.05 0.05 0.05 0.03 0.03 0.03 0.04 0.03 0.02 0.04 0.04 0.05 0.07 0.08 0.07 0.07
0.01 0.01 0.02 0.02 0.04 0.04 0.04 0.04 0.04 0.05 0.07 0.06 0.06 0.06 0.07 0.08 0.10 0.12 0.11 0.11 0.15 0.12 0.09 0.08 0.10 0.11 0.09 0.08 0.05 0.06 0.05 0.04 0.04 0.03 0.02 0.01 0.03 0.04 0.05 0.05 0.05 0.06 0.07
0.01 0.01 0.01 0.03 0.06 0.07 0.06 0.05 0.06 0.06 0.07 0.06 0.07 0.09 0.08 0.09 0.09 0.11 0.11 0.11 0.12 0.14 0.13 0.13 0.15 0.15 0.11 0.10 0.05 0.05 0.05 0.04 0.04 0.02 0.02 0.01 0.02 0.02 0.03 0.05 0.07 0.06 0.05
0.01 0.01 0.03 0.07 0.10 0.10 0.08 0.08 0.07 0.08 0.08 0.07 0.08 0.10 0.09 0.09 0.08 0.11 0.10 0.11 0.11 0.12 0.13 0.14 0.14 0.15 0.13 0.10 0.10 0.07 0.05 0.04 0.03 0.02 0.02 0.03 0.03 0.02 0.03 0.06 0.09 0.09 0.09
0.01 0.03 0.09 0.11 0.08 0.07 0.08 0.10 0.09 0.09 0.08 0.09 0.07 0.08 0.07 0.09 0.10 0.09 0.10 0.09 0.10 0.11 0.13 0.13 0.14 0.14 0.12 0.12 0.13 0.11 0.08 0.06 0.04 0.01 0.01 0.02 0.03 0.03 0.05 0.06 0.07 0.09 0.10
0.02 0.05 0.07 0.06 0.06 0.07 0.08 0.11 0.09 0.08 0.07 0.07 0.07 0.07 0.07 0.07 0.08 0.07 0.07 0.08 0.09 0.08 0.11 0.15 0.15 0.13 0.12 0.14 0.17 0.17 0.10 0.08 0.05 0.02 0.02 0.02 0.04 0.05 0.06 0.05 0.03 0.05 0.06
0.02 0.03 0.02 0.02 0.03 0.04 0.04 0.06 0.06 0.06 0.08 0.08 0.08 0.08 0.06 0.06 0.07 0.06 0.06 0.08 0.10 0.09 0.11 0.13 0.12 0.13 0.13 0.13 0.13 0.14 0.14 0.12 0.09 0.05 0.04 0.04 0.05 0.07 0.07 0.04 0.02 0.03 0.05
0.01 0.02 0.01 0.01 0.02 0.04 0.05 0.06 0.06 0.07 0.08 0.07 0.07 0.07 0.06 0.05 0.05 0.04 0.05 0.07 0.09 0.09 0.10 0.11 0.13 0.15 0.13 0.13 0.13 0.11 0.10 0.11 0.11 0.10 0.08 0.09 0.10 0.09 0.07 0.06 0.04 0.04 0.05
0.00 0.01 0.01 0.02 0.04 0.04 0.03 0.04 0.06 0.06 0.05 0.05 0.07 0.07 0.06 0.05 0.05 0.04 0.05 0.08 0.08 0.09 0.09 0.10 0.11 0.13 0.13 0.12 0.11 0.08 0.07 0.08 0.09 0.10 0.10 0.11 0.13 0.11 0.08 0.07 0.06 0.05 0.05
MSLP
1013.75 1013.85 1014.07 1014.36 1014.64 1014.85 1014.91 1014.81 1014.57 1014.24 1013.89 1013.60 1013.41 1013.35 1013.39 1013.49 1013.60 1013.68 1013.69 1013.65 1013.57 1013.49 1013.47 1013.52 1013.65 1013.84 1014.07 1014.29 1014.47 1014.61 1014.70 1014.77 1014.85 1014.97 1015.14 1015.36 1015.63 1015.92 1016.19 1016.44 1016.65 1016.82 1016.98
1013.91 1014.07 1014.34 1014.67 1014.97 1015.18 1015.24 1015.13 1014.88 1014.55 1014.21 1013.94 1013.79 1013.77 1013.86 1014.02 1014.17 1014.28 1014.30 1014.25 1014.15 1014.06 1014.01 1014.03 1014.15 1014.33 1014.54 1014.74 1014.90 1015.01 1015.07 1015.11 1015.17 1015.27 1015.44 1015.68 1015.97 1016.27 1016.57 1016.83 1017.05 1017.22 1017.36
1014.03 1014.24 1014.54 1014.89 1015.22 1015.45 1015.52 1015.44 1015.22 1014.92 1014.61 1014.38 1014.26 1014.28 1014.39 1014.56 1014.72 1014.81 1014.82 1014.76 1014.65 1014.54 1014.49 1014.52 1014.63 1014.80 1015.01 1015.19 1015.32 1015.39 1015.41 1015.42 1015.45 1015.54 1015.71 1015.96 1016.26 1016.59 1016.91 1017.19 1017.42 1017.59 1017.73
1014.09 1014.32 1014.64 1015.01 1015.36 1015.62 1015.74 1015.71 1015.55 1015.31 1015.07 1014.89 1014.81 1014.83 1014.94 1015.09 1015.21 1015.28 1015.26 1015.18 1015.07 1014.97 1014.94 1014.99 1015.12 1015.31 1015.50 1015.66 1015.75 1015.78 1015.75 1015.72 1015.72 1015.80 1015.97 1016.23 1016.56 1016.91 1017.25 1017.54 1017.78 1017.96 1018.11
1014.10 1014.33 1014.65 1015.03 1015.40 1015.70 1015.88 1015.93 1015.85 1015.70 1015.54 1015.41 1015.36 1015.39 1015.47 1015.58 1015.66 1015.68 1015.63 1015.55 1015.45 1015.39 1015.40 1015.49 1015.65 1015.85 1016.03 1016.16 1016.20 1016.18 1016.10 1016.03 1016.01 1016.08 1016.26 1016.53 1016.88 1017.25 1017.61 1017.92 1018.16 1018.36 1018.51
1014.09 1014.30 1014.61 1014.99 1015.37 1015.71 1015.95 1016.07 1016.09 1016.04 1015.95 1015.88 1015.86 1015.89 1015.95 1016.02 1016.05 1016.04 1015.98 1015.90 1015.84 1015.82 1015.89 1016.03 1016.22 1016.42 1016.59 1016.68 1016.67 1016.59 1016.46 1016.36 1016.31 1016.39 1016.58 1016.88 1017.25 1017.64 1018.01 1018.33 1018.57 1018.76 1018.92
1014.12 1014.30 1014.58 1014.94 1015.32 1015.68 1015.96 1016.15 1016.25 1016.28 1016.27 1016.26 1016.27 1016.31 1016.36 1016.40 1016.41 1016.38 1016.33 1016.27 1016.25 1016.29 1016.41 1016.59 1016.81 1017.00 1017.14 1017.18 1017.12 1016.98 1016.81 1016.68 1016.63 1016.71 1016.93 1017.26 1017.66 1018.07 1018.45 1018.75 1018.99 1019.17 1019.32
1014.24 1014.38 1014.62 1014.94 1015.30 1015.65 1015.95 1016.18 1016.33 1016.41 1016.46 1016.50 1016.55 1016.61 1016.67 1016.72 1016.73 1016.71 1016.68 1016.66 1016.69 1016.78 1016.94 1017.14 1017.35 1017.53 1017.62 1017.60 1017.48 1017.30 1017.10 1016.96 1016.93 1017.04 1017.30 1017.67 1018.09 1018.51 1018.88 1019.18 1019.39 1019.54 1019.65
1014.47 1014.57 1014.77 1015.05 1015.36 1015.68 1015.96 1016.18 1016.34 1016.45 1016.54 1016.62 1016.71 1016.81 1016.90 1016.96 1017.01 1017.02 1017.03 1017.05 1017.11 1017.23 1017.40 1017.60 1017.79 1017.92 1017.95 1017.88 1017.72 1017.50 1017.30 1017.17 1017.18 1017.34 1017.64 1018.05 1018.50 1018.93 1019.29 1019.55 1019.73 1019.83 1019.91
1014.82 1014.89 1015.05 1015.28 1015.53 1015.78 1016.00 1016.18 1016.31 1016.42 1016.52 1016.63 1016.76 1016.90 1017.04 1017.15 1017.24 1017.29 1017.33 1017.38 1017.46 1017.58 1017.74 1017.90 1018.04 1018.12 1018.10 1017.98 1017.79 1017.57 1017.39 1017.30 1017.35 1017.57 1017.92 1018.37 1018.84 1019.28 1019.62 1019.86 1019.98 1020.04 1020.07
1015.24 1015.31 1015.44 1015.61 1015.80 1015.97 1016.11 1016.21 1016.29 1016.37 1016.46 1016.58 1016.74 1016.92 1017.11 1017.28 1017.41 1017.50 1017.57 1017.63 1017.70 1017.79 1017.91 1018.02 1018.10 1018.12 1018.06 1017.92 1017.72 1017.52 1017.37 1017.34 1017.45 1017.73 1018.13 1018.61 1019.10 1019.53 1019.86 1020.07 1020.15 1020.17 1020.16
1015.69 1015.77 1015.89 1016.02 1016.13 1016.22 1016.27 1016.29 1016.30 1016.32 1016.39 1016.51 1016.69 1016.91 1017.14 1017.35 1017.52 1017.64 1017.72 1017.77 1017.81 1017.85 1017.91 1017.96 1017.98 1017.95 1017.87 1017.72 1017.55 1017.38 1017.29 1017.32 1017.49 1017.81 1018.25 1018.75 1019.25 1019.68 1019.99 1020.18 1020.24 1020.23 1020.20
1016.09 1016.20 1016.32 1016.42 1016.49 1016.51 1016.47 1016.41 1016.35 1016.31 1016.35 1016.46 1016.65 1016.88 1017.14 1017.38 1017.57 1017.71 1017.77 1017.80 1017.79 1017.78 1017.78 1017.77 1017.75 1017.70 1017.60 1017.48 1017.34 1017.23 1017.20 1017.27 1017.48 1017.83 1018.29 1018.79 1019.28 1019.70 1020.01 1020.19 1020.26 1020.25 1020.22
1016.38 1016.53 1016.67 1016.77 1016.81 1016.77 1016.69 1016.56 1016.44 1016.36 1016.36 1016.45 1016.63 1016.87 1017.14 1017.39 1017.59 1017.71 1017.76 1017.75 1017.71 1017.65 1017.59 1017.55 1017.50 1017.45 1017.37 1017.28 1017.19 1017.13 1017.14 1017.24 1017.47 1017.81 1018.24 1018.72 1019.19 1019.60 1019.91 1020.11 1020.20 1020.23 1020.22
1016.52 1016.71 1016.88 1016.99 1017.03 1016.98 1016.87 1016.72 1016.56 1016.45 1016.43 1016.50 1016.66 1016.89 1017.15 1017.39 1017.57 1017.68 1017.72 1017.68 1017.61 1017.52 1017.44 1017.38 1017.33 1017.30 1017.25 1017.20 1017.15 1017.13 1017.15 1017.25 1017.44 1017.74 1018.12 1018.55 1018.98 1019.37 1019.69 1019.92 1020.07 1020.15 1020.20
1016.49 1016.72 1016.93 1017.07 1017.13 1017.11 1017.01 1016.86 1016.71 1016.59 1016.55 1016.60 1016.74 1016.94 1017.17 1017.38 1017.55 1017.65 1017.67 1017.62 1017.54 1017.46 1017.39 1017.34 1017.31 1017.30 1017.29 1017.28 1017.25 1017.23 1017.23 1017.29 1017.41 1017.62 1017.92 1018.26 1018.64 1019.00 1019.33 1019.61 1019.82 1019.97 1020.10
1016.33 1016.59 1016.82 1017.00 1017.11 1017.14 1017.09 1016.99 1016.87 1016.77 1016.72 1016.75 1016.85 1017.02 1017.20 1017.39 1017.53 1017.61 1017.63 1017.60 1017.55 1017.49 1017.45 1017.43 1017.44 1017.47 1017.48 1017.48 1017.45 1017.40 1017.36 1017.33 1017.36 1017.46 1017.63 1017.88 1018.18 1018.51 1018.85 1019.15 1019.43 1019.66 1019.86
1016.08 1016.36 1016.62 1016.85 1017.01 1017.11 1017.14 1017.10 1017.04 1016.97 1016.92 1016.93 1017.00 1017.11 1017.24 1017.38 1017.50 1017.58 1017.61 1017.62 1017.60 1017.59 1017.60 1017.63 1017.68 1017.73 1017.76 1017.75 1017.69 1017.60 1017.48 1017.36 1017.27 1017.24 1017.29 1017.43 1017.65 1017.93 1018.24 1018.57 1018.89 1019.19 1019.45
1015.82 1016.09 1016.38 1016.64 1016.88 1017.05 1017.17 1017.21 1017.21 1017.18 1017.15 1017.13 1017.14 1017.19 1017.27 1017.36 1017.45 1017.53 1017.59 1017.63 1017.67 1017.72 1017.78 1017.85 1017.93 1017.99 1018.02 1017.99 1017.90 1017.75 1017.55 1017.33 1017.14 1016.99 1016.92 1016.95 1017.07 1017.28 1017.56 1017.88 1018.22 1018.55 1018.85
1015.59 1015.86 1016.16 1016.46 1016.75 1017.00 1017.20 1017.33 1017.40 1017.40 1017.37 1017.33 1017.29 1017.27 1017.28 1017.32 1017.37 1017.44 1017.52 1017.60 1017.69 1017.79 1017.89 1018.00 1018.09 1018.15 1018.17 1018.12 1017.99 1017.79 1017.54 1017.25 1016.97 1016.73 1016.56 1016.49 1016.52 1016.64 1016.86 1017.14 1017.45 1017.77 1018.08
1015.43 1015.69 1016.00 1016.33 1016.67 1016.99 1017.26 1017.46 1017.58 1017.62 1017.59 1017.51 1017.42 1017.33 1017.27 1017.24 1017.25 1017.30 1017.39 1017.50 1017.62 1017.75 1017.88 1018.00 1018.09 1018.14 1018.14 1018.07 1017.93 1017.71 1017.44 1017.12 1016.80 1016.51 1016.27 1016.11 1016.05 1016.08 1016.21 1016.41 1016.66 1016.94 1017.22
1015.34 1015.61 1015.92 1016.26 1016.64 1017.00 1017.33 1017.59 1017.75 1017.82 1017.78 1017.67 1017.52 1017.37 1017.23 1017.14 1017.10 1017.12 1017.20 1017.30 1017.43 1017.57 1017.70 1017.81 1017.88 1017.92 1017.90 1017.83 1017.70 1017.50 1017.26 1016.97 1016.66 1016.36 1016.09 1015.87 1015.73 1015.66 1015.68 1015.78 1015.93 1016.13 1016.36
1015.32 1015.60 1015.90 1016.26 1016.64 1017.03 1017.40 1017.69 1017.89 1017.97 1017.93 1017.80 1017.61 1017.39 1017.19 1017.04 1016.94 1016.92 1016.96 1017.04 1017.15 1017.26 1017.35 1017.43 1017.48 1017.50 1017.48 1017.43 1017.34 1017.20 1017.03 1016.82 1016.57 1016.31 1016.04 1015.79 1015.57 1015.41 1015.32 1015.29 1015.33 1015.44 1015.60
1015.34 1015.62 1015.93 1016.27 1016.65 1017.05 1017.43 1017.75 1017.96 1018.06 1018.03 1017.89 1017.67 1017.41 1017.16 1016.95 1016.81 1016.73 1016.72 1016.76 1016.81 1016.87 1016.91 1016.94 1016.95 1016.95 1016.94 1016.92 1016.90 1016.86 1016.79 1016.69 1016.54 1016.34 1016.11 1015.84 1015.58 1015.33 1015.12 1014.98 1014.92 1014.94 1015.03
1015.37 1015.66 1015.95 1016.28 1016.64 1017.02 1017.40 1017.72 1017.95 1018.07 1018.06 1017.92 1017.70 1017.44 1017.16 1016.92 1016.73 1016.61 1016.54 1016.51 1016.49 1016.48 1016.46 1016.43 1016.39 1016.37 1016.37 1016.40 1016.45 1016.51 1016.56 1016.58 1016.54 1016.43 1016.24 1015.98 1015.68 1015.37 1015.08 1014.85 1014.70 1014.66 1014.71
1015.39 1015.68 1015.95 1016.25 1016.58 1016.93 1017.29 1017.61 1017.86 1018.00 1018.01 1017.91 1017.72 1017.47 1017.20 1016.95 1016.73 1016.57 1016.44 1016.35 1016.26 1016.17 1016.08 1015.98 1015.90 1015.86 1015.86 1015.93 1016.05 1016.20 1016.36 1016.49 1016.55 1016.51 1016.37 1016.13 1015.82 1015.47 1015.14 1014.86 1014.67 1014.60 1014.65
Thickness
5780 5777 5769 5769 5768 5767 5767 5766 5766 5765 5765 5764 5763 5763 5762 5761 5761 5761 5761 5760 5759 5759 5759 5759 5758 5758 5757 5756 5756 5755 5754 5753 5752 5751 5750 5749 5748 5746 5745 5744 5745 5743 5740
5782 5776 5768 5768 5767 5766 5765 5764 5764 5763 5763 5762 5761 5761 5760 5760 5759 5758 5759 5757 5757 5757 5757 5757 5756 5756 5755 5754 5753 5752 5752 5751 5751 5750 5749 5747 5746 5745 5744 5744 5745 5742 5739
5782 5776 5770 5767 5765 5764 5764 5763 5762 5761 5761 5760 5759 5759 5758 5758 5757 5757 5756 5756 5755 5755 5755 5754 5754 5754 5753 5752 5751 5751 5750 5750 5749 5749 5749 5750 5745 5743 5742 5741 5741 5739 5737
5782 5777 5771 5765 5764 5763 5762 5761 5760 5760 5759 5758 5757 5757 5757 5756 5755 5755 5755 5754 5754 5753 5753 5753 5753 5752 5751 5750 5750 5749 5749 5748 5748 5749 5752 5750 5747 5741 5740 5740 5739 5737 5736
5780 5775 5768 5765 5763 5762 5760 5759 5759 5758 5757 5757 5756 5756 5755 5754 5754 5754 5753 5753 5753 5752 5752 5751 5751 5750 5749 5748 5748 5747 5747 5747 5748 5751 5751 5749 5745 5740 5739 5738 5737 5736 5735
5780 5777 5768 5764 5762 5761 5759 5758 5757 5757 5756 5755 5755 5754 5754 5753 5753 5752 5752 5752 5752 5751 5750 5750 5749 5749 5748 5747 5746 5746 5746 5746 5749 5752 5750 5748 5745 5740 5738 5737 5736 5735 5734
5781 5777 5769 5763 5761 5759 5758 5757 5756 5755 5755 5754 5753 5753 5752 5752 5751 5751 5751 5751 5750 5750 5749 5748 5748 5747 5747 5746 5745 5745 5745 5747 5752 5751 5748 5747 5743 5739 5738 5736 5735 5734 5733
5781 5777 5769 5763 5761 5759 5757 5756 5755 5754 5753 5753 5752 5751 5751 5750 5750 5750 5750 5749 5749 5748 5748 5747 5746 5746 5745 5745 5744 5744 5745 5747 5750 5750 5748 5745 5740 5738 5737 5735 5734 5733 5732
5781 5777 5773 5768 5762 5759 5757 5755 5754 5753 5752 5752 5751 5750 5750 5749 5749 5749 5749 5748 5748 5747 5747 5746 5745 5745 5744 5744 5743 5743 5744 5747 5752 5750 5748 5744 5739 5737 5736 5735 5733 5732 5731
5780 5778 5773 5771 5767 5764 5760 5755 5754 5753 5752 5751 5751 5750 5750 5749 5749 5749 5749 5747 5747 5747 5746 5746 5745 5744 5744 5743 5743 5743 5744 5747 5753 5752 5749 5744 5739 5737 5736 5734 5733 5732 5730
5776 5776 5775 5772 5768 5766 5763 5758 5756 5754 5752 5752 5752 5751 5751 5754 5754 5751 5749 5747 5747 5746 5746 5746 5745 5744 5744 5744 5743 5744 5746 5751 5753 5752 5748 5742 5739 5737 5736 5734 5733 5732 5730
5773 5774 5774 5771 5767 5766 5764 5760 5759 5759 5756 5755 5754 5754 5754 5753 5753 5753 5748 5747 5747 5746 5746 5746 5746 5745 5747 5749 5747 5746 5751 5753 5753 5751 5747 5742 5739 5737 5736 5734 5733 5732 5730
5776 5774 5774 5770 5766 5766 5763 5762 5761 5760 5757 5757 5755 5754 5753 5753 5754 5753 5752 5750 5749 5748 5750 5748 5749 5751 5752 5751 5752 5752 5753 5754 5754 5753 5748 5742 5740 5738 5736 5735 5733 5732 5730
5776 5774 5774 5771 5767 5764 5764 5763 5761 5761 5760 5759 5755 5755 5755 5755 5754 5754 5753 5753 5752 5751 5750 5752 5751 5751 5751 5751 5751 5752 5753 5754 5754 5752 5747 5743 5741 5739 5738 5736 5734 5733 5731
5776 5775 5774 5770 5767 5764 5761 5761 5763 5761 5761 5760 5756 5755 5754 5755 5755 5754 5752 5752 5754 5753 5752 5750 5751 5751 5751 5752 5752 5753 5753 5754 5753 5753 5749 5745 5742 5741 5739 5738 5736 5734 5732
5779 5777 5776 5771 5768 5765 5762 5761 5761 5762 5759 5759 5758 5756 5754 5755 5754 5754 5753 5752 5753 5753 5752 5751 5752 5751 5752 5753 5753 5753 5754 5754 5753 5752 5752 5748 5744 5743 5741 5739 5738 5736 5734
5783 5780 5777 5774 5770 5767 5765 5763 5763 5762 5762 5760 5758 5755 5754 5754 5753 5753 5754 5753 5754 5753 5751 5751 5751 5752 5753 5754 5754 5754 5755 5754 5754 5753 5753 5752 5750 5746 5744 5742 5740 5738 5736
5788 5783 5779 5778 5773 5769 5766 5763 5764 5763 5762 5760 5758 5757 5755 5754 5753 5753 5754 5754 5753 5753 5753 5752 5752 5753 5754 5754 5755 5756 5756 5756 5755 5754 5754 5754 5753 5753 5749 5745 5743 5740 5739
5790 5785 5780 5778 5774 5771 5768 5765 5763 5762 5761 5760 5759 5757 5756 5755 5754 5754 5755 5754 5753 5753 5753 5754 5755 5753 5752 5753 5755 5756 5758 5758 5758 5758 5758 5757 5756 5754 5753 5749 5746 5744 5741
5793 5788 5783 5779 5776 5772 5770 5767 5765 5763 5762 5761 5759 5757 5756 5755 5755 5755 5755 5754 5754 5754 5753 5753 5752 5752 5752 5752 5755 5758 5758 5760 5760 5761 5760 5760 5759 5757 5756 5754 5750 5747 5744
5795 5790 5785 5781 5778 5774 5771 5768 5765 5763 5763 5762 5760 5758 5757 5756 5756 5755 5756 5754 5754 5753 5753 5754 5752 5752 5752 5753 5751 5752 5757 5761 5762 5762 5762 5762 5761 5759 5757 5755 5752 5751 5748
5796 5792 5787 5783 5780 5776 5773 5770 5768 5766 5765 5764 5762 5759 5757 5756 5756 5757 5755 5755 5755 5753 5753 5753 5751 5751 5752 5753 5748 5746 5747 5753 5758 5764 5762 5760 5759 5759 5757 5755 5752 5750 5748
5800 5796 5793 5787 5783 5779 5775 5772 5769 5766 5765 5764 5762 5760 5759 5758 5757 5756 5755 5755 5754 5754 5753 5752 5751 5749 5748 5751 5751 5746 5744 5744 5752 5758 5759 5758 5757 5756 5755 5754 5752 5750 5747
5805 5801 5796 5791 5786 5781 5777 5774 5770 5766 5763 5763 5762 5761 5760 5759 5758 5757 5756 5755 5754 5754 5753 5753 5754 5752 5749 5748 5749 5750 5750 5750 5744 5746 5752 5754 5753 5751 5751 5751 5750 5748 5746
5810 5804 5799 5792 5787 5783 5779 5775 5770 5768 5767 5766 5764 5761 5760 5760 5759 5758 5757 5756 5754 5753 5753 5752 5752 5751 5751 5749 5748 5748 5747 5746 5747 5742 5740 5744 5746 5748 5747 5746 5746 5744 5743
5811 5806 5800 5793 5788 5784 5780 5776 5772 5769 5767 5764 5762 5761 5760 5760 5760 5759 5758 5756 5754 5753 5753 5752 5751 5751 5749 5748 5748 5747 5745 5743 5743 5742 5738 5738 5738 5740 5742 5742 5741 5740 5739